Theta_e
315 317 320 320 317 315 315 314 314 315 315 316 316 316 317 316 315 315 317 318 317 316 317 317 315 314 314 314 313 313 313 313 313 313 313 313 313 313 313 313 312 313 312 311 309 308 308 308 308 308 307 306 305 304 303 301 301 300 299 299 298 298 298 297 297 297 296 296 296 295 295 295 294 294 293 293 293 293 293 292 292 292 292 292 291 291
316 317 319 318 316 315 315 315 314 314 314 315 316 316 316 317 317 316 317 319 317 316 316 317 316 315 314 313 313 313 313 313 314 313 313 313 313 313 313 313 313 313 313 314 313 308 306 307 307 307 306 305 304 303 302 301 300 300 299 299 298 297 297 297 297 297 296 296 296 295 295 295 294 293 293 293 293 293 292 292 292 292 292 291 291 291
317 317 316 315 315 315 315 315 315 315 315 316 316 317 318 318 317 316 317 319 315 315 320 320 316 314 314 314 313 313 313 313 314 314 315 314 314 314 313 314 313 314 314 316 318 310 305 306 306 306 305 305 304 303 302 301 300 300 299 299 298 297 297 297 297 297 296 296 296 295 295 294 294 293 293 293 293 292 292 292 291 291 291 291 291 290
317 317 315 314 315 316 315 315 316 316 316 316 317 317 318 317 317 315 317 320 316 316 322 321 317 314 314 314 313 314 313 314 314 315 315 315 315 315 315 315 314 314 315 317 319 313 306 304 304 304 304 303 304 302 301 301 300 299 299 299 298 297 297 297 296 296 296 296 295 295 294 294 294 293 293 292 292 292 292 291 291 291 291 291 290 290
315 317 319 317 315 316 316 316 316 316 315 317 318 318 317 317 318 316 316 320 319 319 320 317 316 316 316 316 315 315 315 314 315 314 315 315 315 316 315 316 315 315 315 316 318 314 309 305 303 303 303 303 302 301 301 300 300 300 299 299 298 297 297 297 296 296 296 295 295 294 294 293 293 292 292 292 292 291 291 291 291 290 290 290 290 290
313 317 321 319 317 318 317 316 318 319 316 316 320 320 318 318 318 318 318 317 320 324 320 317 320 320 320 320 317 316 317 315 315 314 315 315 314 315 314 314 315 315 316 317 317 314 309 306 303 301 302 302 301 301 301 301 301 300 299 299 298 297 297 297 296 296 296 295 295 294 293 292 292 291 291 292 291 291 291 291 291 290 290 290 290 289
313 316 319 319 320 321 320 319 321 321 316 316 323 325 321 320 320 320 320 319 324 329 322 318 323 322 321 321 319 318 319 318 317 316 316 314 314 315 314 314 314 315 318 319 316 312 309 306 303 302 301 301 301 301 301 301 300 300 299 298 298 297 297 297 296 296 295 295 295 294 294 293 292 292 292 292 291 291 291 291 290 290 290 290 289 289
315 315 319 319 319 321 320 319 322 323 318 318 326 330 325 323 323 323 324 325 327 327 321 319 322 322 321 320 319 319 319 319 318 317 317 315 315 316 315 315 315 317 320 321 316 311 308 307 304 302 301 301 301 301 301 300 300 300 299 298 298 298 297 297 296 296 295 295 294 294 293 293 293 292 292 292 291 291 291 290 290 290 290 290 289 289
320 319 322 322 320 321 319 318 323 323 319 320 324 328 326 324 325 325 324 326 327 323 321 322 320 321 320 317 317 317 316 317 316 316 316 315 317 317 316 315 315 318 322 320 316 312 308 306 303 301 301 301 301 301 300 300 300 299 299 298 298 297 297 297 296 296 296 295 295 294 293 293 293 293 292 292 291 291 291 290 290 290 290 289 289 288
320 318 319 323 321 319 321 325 327 324 320 321 321 324 328 328 325 322 320 322 325 322 321 323 320 320 319 315 316 317 315 317 315 315 315 314 317 317 316 315 315 319 322 318 314 312 309 305 302 302 301 301 300 301 300 300 299 299 299 298 298 297 297 297 296 296 295 295 294 294 293 293 293 292 292 292 291 291 291 290 290 290 289 289 289 288
315 313 315 321 320 320 325 324 319 320 320 318 319 322 328 332 328 326 326 324 322 320 320 324 321 318 319 317 317 318 317 318 316 315 316 314 315 316 315 315 314 317 322 318 314 312 308 303 302 302 301 300 300 300 300 299 299 298 298 298 298 297 297 297 296 296 296 295 294 294 294 293 293 292 292 291 291 291 290 290 290 290 289 289 289 288
314 313 316 321 321 322 323 318 315 318 318 317 322 324 326 332 330 327 325 322 320 320 320 323 322 318 318 318 317 316 316 317 315 316 317 316 315 314 314 315 313 315 320 319 315 313 310 306 303 301 300 300 299 299 299 299 298 298 298 297 297 297 297 297 296 296 295 295 294 294 294 293 293 292 292 291 291 291 290 290 290 289 289 289 288 288
316 315 316 318 318 320 320 319 320 321 317 317 323 324 322 325 325 322 323 323 322 322 320 320 320 318 317 316 316 316 317 317 316 316 316 317 317 314 314 315 313 317 322 320 316 314 312 309 306 303 300 299 299 299 299 298 298 298 297 297 297 297 297 296 296 296 295 295 294 294 294 293 293 292 292 292 291 291 291 290 289 289 289 288 288 288
322 319 316 315 315 318 318 318 319 320 318 317 320 321 321 322 321 322 327 326 320 322 323 318 317 320 318 320 320 316 316 318 317 316 316 317 318 315 315 315 315 319 322 319 316 315 312 309 307 303 300 299 299 299 298 298 298 297 297 297 297 297 297 296 296 295 295 295 295 294 294 293 293 292 292 292 291 291 291 290 290 289 289 288 288 288
323 320 317 318 319 319 316 315 317 322 320 315 318 321 320 324 326 324 326 323 318 326 328 317 319 325 320 321 324 319 315 316 315 316 316 315 316 315 314 317 320 322 321 317 315 314 312 309 306 302 300 299 299 299 298 298 298 297 297 297 297 296 296 296 296 295 295 295 295 294 294 293 293 292 292 291 291 291 291 290 290 289 289 289 289 289
320 320 319 317 319 318 316 315 317 322 322 317 320 320 317 322 324 319 321 321 317 323 324 317 322 327 319 317 320 318 316 316 314 315 315 314 314 314 313 318 324 324 320 316 315 314 312 309 305 301 300 300 299 299 298 298 298 297 297 297 296 296 296 296 296 295 295 295 294 294 293 293 293 292 292 291 291 291 291 290 290 290 289 289 289 289
317 323 322 314 315 316 314 316 317 319 321 318 319 319 317 320 321 318 323 324 317 318 319 318 321 322 317 316 316 315 316 316 314 314 313 313 314 315 313 318 327 325 319 316 315 313 312 310 306 301 300 300 299 299 299 298 298 298 297 297 296 296 296 296 295 295 295 295 294 294 293 293 292 292 292 291 291 291 290 290 290 290 289 289 289 289
318 319 320 316 317 315 310 313 317 316 318 319 321 320 317 319 321 321 324 325 321 319 320 318 317 316 315 317 317 317 316 315 315 314 313 313 314 314 313 320 329 325 318 315 314 313 312 311 307 302 300 301 300 299 299 299 299 298 297 297 296 296 296 296 296 295 295 294 294 294 293 293 292 292 292 291 291 291 290 290 289 289 289 289 289 289
320 316 318 317 317 316 312 314 317 315 314 318 320 319 318 322 324 323 322 322 321 319 318 316 315 313 313 314 314 314 316 317 316 314 313 312 312 313 313 318 324 320 317 316 315 314 313 312 308 303 301 301 301 300 300 299 298 298 297 297 297 296 296 296 295 295 295 294 294 294 293 293 292 292 291 291 291 290 290 290 289 289 289 289 289 288
318 316 318 316 313 315 313 315 321 319 315 315 316 317 317 319 323 324 321 320 320 318 318 317 316 314 315 316 314 313 316 317 315 314 313 313 312 312 312 316 320 320 319 318 316 314 313 312 308 303 302 302 301 300 300 299 299 298 298 297 297 296 296 295 295 295 295 294 294 294 293 293 292 292 291 291 291 290 290 290 289 289 289 289 288 288
316 316 317 316 313 314 313 315 321 323 319 317 317 319 316 315 319 321 317 318 318 317 317 317 316 315 318 319 316 316 319 316 315 315 314 314 313 312 313 315 319 320 320 318 315 315 314 312 308 303 303 303 301 301 300 299 299 298 298 297 297 297 296 295 295 295 295 294 294 293 293 293 292 291 291 291 290 290 290 289 289 289 289 288 288 287
319 319 317 317 316 316 316 317 319 320 319 319 317 318 318 316 317 318 316 318 318 316 316 317 317 315 316 320 320 321 323 320 318 316 313 314 314 313 313 315 316 319 321 320 317 315 314 314 310 305 303 303 302 301 301 300 299 298 298 298 297 297 296 296 296 295 295 294 293 293 293 292 292 291 291 290 290 290 289 289 289 288 288 288 287 287
322 321 318 317 318 320 319 317 316 316 315 316 317 318 318 316 315 316 316 317 316 316 316 316 317 316 314 317 319 319 321 322 320 317 315 316 316 314 313 314 316 318 320 320 319 317 315 314 311 305 302 302 301 302 301 300 299 298 298 298 297 296 296 296 296 295 295 294 293 293 292 292 291 291 290 290 290 289 289 289 288 288 288 287 287 286
319 320 318 317 320 325 324 318 315 313 311 314 316 316 316 315 314 315 315 316 316 316 316 316 317 317 314 316 319 318 319 320 317 316 317 318 316 315 314 316 321 323 322 321 319 318 316 315 311 308 307 305 301 301 301 300 299 299 298 298 297 297 297 297 296 295 294 294 293 292 292 291 291 290 290 290 289 289 288 288 288 287 287 287 286 286
317 319 320 319 319 322 322 320 317 313 311 313 315 314 314 314 314 314 314 316 316 315 315 316 315 315 314 316 318 317 316 316 314 313 315 315 314 315 317 320 323 324 322 321 321 320 319 319 316 314 313 307 301 301 301 300 300 299 298 298 298 297 297 297 296 295 294 293 292 292 291 291 291 290 290 289 289 288 287 287 287 287 286 286 286 285
316 318 319 319 319 320 320 319 320 318 313 313 315 314 313 315 315 314 315 316 315 315 315 315 315 314 313 313 314 313 312 313 312 312 313 314 314 317 319 322 322 321 321 321 323 321 319 319 317 316 315 307 301 300 301 300 300 299 299 299 298 298 297 296 295 295 294 293 292 291 291 290 290 290 289 289 288 287 287 286 286 286 286 285 285 285
315 317 317 317 318 319 319 318 319 320 315 313 315 315 313 314 314 314 316 316 315 315 315 315 314 314 314 313 312 312 312 312 311 312 312 312 313 315 317 320 320 319 318 317 318 318 317 316 316 316 315 307 300 300 301 300 300 299 299 298 298 298 297 296 295 294 293 293 292 291 291 290 290 289 289 288 287 286 286 285 285 285 285 285 284 284
314 314 315 316 316 317 317 316 316 317 315 314 315 314 313 314 314 314 315 315 315 316 315 315 315 315 314 313 312 312 312 311 311 311 311 311 311 312 313 316 317 316 314 312 314 316 317 317 316 315 314 308 301 299 300 300 300 299 299 298 298 297 296 295 295 294 293 292 291 290 290 290 289 289 288 287 286 286 285 284 284 284 284 284 283 283
313 313 313 314 315 315 315 315 315 315 314 314 314 313 313 313 313 313 313 313 313 314 314 313 314 314 313 311 312 312 311 311 311 311 311 311 311 311 312 313 315 313 311 312 316 317 316 316 315 314 314 311 305 300 299 299 299 298 298 298 297 296 296 295 294 293 292 291 291 291 290 289 289 288 287 286 285 285 284 284 283 283 283 283 282 282
314 313 313 313 313 314 314 314 314 314 314 314 314 313 313 312 312 312 312 311 312 312 312 312 312 312 312 311 311 311 311 311 311 311 311 311 311 311 311 311 311 311 311 314 317 317 316 314 314 313 313 312 310 304 299 298 298 297 297 297 296 296 295 294 293 292 291 291 290 290 290 289 288 287 286 285 284 284 283 283 282 282 282 282 281 281
312 313 313 313 313 313 313 313 313 313 314 313 313 313 313 313 313 312 311 311 311 311 311 311 312 311 311 311 311 311 311 311 311 311 311 310 311 311 311 311 311 310 311 313 313 313 313 312 311 311 310 311 310 304 299 299 299 297 296 296 295 295 295 294 293 292 291 291 290 290 289 288 287 286 285 284 284 283 282 282 281 281 281 281 280 280
309 311 311 312 313 313 313 313 313 313 313 313 313 313 313 313 313 312 312 312 312 312 312 312 312 311 310 310 310 310 311 310 310 311 310 311 311 311 311 311 311 311 311 311 310 310 310 310 310 310 309 309 306 301 299 300 299 296 296 296 295 295 294 293 292 291 291 290 289 289 288 287 286 285 284 284 283 282 282 281 280 280 280 279 279 279
309 309 311 313 314 314 314 314 313 312 313 313 313 312 312 313 313 312 312 312 311 312 313 313 313 311 310 311 310 310 311 310 311 311 311 311 311 311 311 311 312 312 311 310 310 309 309 310 309 308 309 308 303 300 301 302 300 298 298 297 295 294 293 292 292 291 290 290 289 288 287 286 285 284 283 283 282 281 281 280 279 279 279 279 278 278
311 310 310 313 314 315 315 315 314 314 314 316 316 313 312 313 313 313 313 312 312 312 312 312 311 311 311 311 311 311 311 311 311 311 311 311 311 311 311 311 311 311 310 310 310 310 310 309 308 307 306 303 301 301 303 302 302 302 301 298 295 294 292 291 291 290 289 289 288 287 286 285 284 283 283 282 281 280 280 279 279 278 278 278 277 277
311 310 311 312 314 315 315 316 317 317 317 317 317 314 312 312 312 313 313 313 312 312 312 312 311 311 311 311 311 311 311 311 311 311 311 311 311 311 311 310 310 310 309 310 309 308 309 309 309 309 306 301 300 301 301 302 302 302 299 296 294 292 291 291 290 289 289 288 287 286 285 284 283 282 281 281 280 279 279 278 278 277 277 277 276 276
312 311 312 313 313 314 316 316 318 319 316 314 315 314 312 312 313 313 314 314 312 312 312 312 311 311 311 311 311 311 311 311 311 311 311 310 309 308 308 308 308 308 308 308 308 309 309 308 307 307 305 302 301 301 301 302 303 300 297 295 293 291 290 290 289 288 288 287 286 285 285 284 283 281 280 280 279 278 278 277 277 277 276 276 275 275
312 312 313 314 314 315 316 315 316 317 315 314 315 315 312 312 313 313 314 314 312 311 311 311 312 311 311 311 310 310 311 311 311 310 309 306 304 304 304 304 304 304 305 305 305 305 305 304 302 302 302 302 302 302 302 303 301 298 294 292 291 290 289 288 287 287 287 286 285 285 284 283 282 281 280 279 278 277 277 277 276 276 276 275 275 274
311 312 313 314 315 315 316 316 316 317 316 316 316 315 312 312 312 312 313 313 310 308 308 308 309 308 308 307 306 308 310 311 311 310 306 302 301 302 302 302 301 302 302 302 302 301 300 300 301 301 301 301 301 302 301 300 298 295 291 289 288 288 287 286 286 286 286 286 285 284 284 283 282 281 279 278 278 277 276 276 276 275 275 275 274 274
310 311 312 314 315 314 316 316 315 316 316 314 313 312 311 312 311 311 314 313 307 302 302 302 302 301 301 301 301 304 308 311 309 306 303 301 301 301 301 301 300 300 300 300 299 299 297 297 299 301 300 298 297 298 297 296 295 292 289 288 287 286 286 286 286 287 286 286 285 284 283 282 281 280 279 278 277 277 276 276 275 275 275 275 274 274
310 310 311 313 314 314 315 315 315 316 313 306 304 305 308 310 311 313 316 313 304 300 299 298 298 298 297 297 298 299 301 303 302 300 300 300 299 299 299 300 299 299 299 299 298 297 296 297 298 299 297 295 296 297 296 294 293 291 289 288 286 285 286 286 286 287 286 285 284 283 282 282 281 280 279 278 277 276 276 275 275 274 274 274 273 273
306 308 311 312 312 313 314 314 314 315 308 299 298 301 303 310 315 314 311 307 301 298 297 296 295 296 295 295 295 295 296 297 297 297 297 297 297 296 297 297 297 296 297 297 298 298 297 297 297 297 297 297 296 296 296 294 291 290 289 287 285 285 286 286 286 286 285 284 283 282 281 281 280 279 278 277 277 276 275 275 274 274 273 273 273 273
302 305 307 308 309 312 313 312 314 314 304 296 298 299 300 306 310 305 301 300 299 296 296 295 294 294 294 294 293 293 294 294 294 294 295 295 294 294 295 295 295 295 296 297 297 297 297 296 297 297 298 298 296 295 295 293 290 289 287 285 285 286 286 286 286 285 285 283 282 281 280 280 279 278 277 277 276 275 274 274 273 273 273 272 272 272
300 301 301 303 306 308 307 310 313 310 302 297 297 298 297 298 298 297 298 299 298 295 294 294 293 293 293 293 293 293 293 293 293 293 293 294 294 294 294 294 295 296 297 297 297 297 296 296 297 297 298 298 296 295 294 292 290 288 286 285 287 288 286 286 286 285 284 283 281 280 279 279 278 277 276 276 275 274 273 273 272 272 272 272 272 271
299 299 298 300 303 302 301 304 306 302 299 298 297 297 296 295 296 297 298 297 295 294 294 293 292 292 293 293 292 293 293 292 293 293 293 293 294 294 294 294 295 296 297 296 296 296 296 296 297 297 297 298 296 294 293 292 291 288 287 288 289 288 286 285 285 284 283 281 280 279 278 277 277 276 275 275 274 274 273 272 271 271 271 271 271 271
298 296 295 297 299 298 298 299 299 296 297 299 297 295 294 295 297 298 297 294 293 293 293 292 292 292 292 292 292 293 293 293 293 293 293 294 294 294 295 295 295 296 296 295 296 296 296 296 297 296 295 296 296 294 293 293 291 289 288 290 290 287 286 285 284 282 281 280 278 278 277 276 276 275 275 274 274 273 272 271 271 270 270 270 270 270
294 294 295 295 296 295 295 295 295 294 295 296 294 293 295 297 299 299 297 294 293 293 292 292 292 292 292 292 292 292 292 292 292 293 293 294 294 294 294 294 295 295 295 295 295 295 296 296 296 296 295 296 296 295 294 293 292 290 291 292 290 287 286 284 282 281 279 278 277 276 275 275 274 274 273 273 273 273 272 271 270 270 270 270 270 270
292 293 293 293 292 292 291 292 293 293 293 292 291 293 298 299 298 296 294 292 292 292 292 292 292 291 291 291 291 291 291 291 292 292 292 292 293 293 293 293 293 293 294 294 294 294 295 296 297 298 298 297 296 295 295 294 292 292 293 292 290 287 285 283 281 279 277 276 275 274 274 274 273 272 272 272 272 272 271 270 270 270 269 269 270 270
292 292 291 290 291 291 291 291 292 292 292 291 290 291 294 294 292 291 291 291 291 291 291 291 291 290 290 290 290 290 290 290 290 291 291 291 291 291 291 292 292 292 292 293 293 293 294 295 297 298 298 297 296 296 296 295 294 293 292 291 289 287 285 282 280 278 276 275 274 273 273 273 272 271 271 271 271 270 270 270 270 270 270 270 271 271
291 291 290 290 290 290 290 290 291 291 290 289 288 290 291 290 289 289 289 289 289 289 289 289 289 288 288 288 288 288 289 289 289 289 289 289 289 290 290 290 291 291 291 291 292 293 293 294 295 295 295 295 296 296 295 295 295 294 292 289 288 286 283 281 279 277 276 274 273 272 271 271 271 270 270 270 270 270 269 269 269 269 270 271 272 273
290 290 290 290 290 289 289 290 290 289 288 287 288 290 290 289 288 287 287 287 287 287 287 286 286 286 286 286 286 286 287 286 286 287 287 287 288 288 288 288 289 289 290 290 291 291 291 292 293 293 293 294 294 295 294 294 295 294 292 289 287 285 283 280 277 276 275 273 271 271 270 270 270 270 270 269 269 269 269 269 269 270 271 271 272 273
290 290 290 290 290 290 289 289 289 288 288 288 289 289 288 287 286 285 286 285 285 284 284 283 283 283 283 284 284 284 284 284 284 285 285 285 286 286 286 286 287 288 288 288 289 290 290 290 291 292 292 293 293 294 294 294 293 293 291 288 286 284 282 280 277 275 273 272 271 270 270 269 269 269 269 269 268 268 268 269 270 270 271 271 272 272
Wind_Speed
5 4 4 7 10 11 10 12 16 14 9 9 9 8 9 8 10 12 11 7 8 6 7 13 15 16 17 18 17 15 11 10 11 11 12 12 12 12 13 14 15 15 16 14 13 22 29 32 34 34 34 35 35 36 38 39 40 41 41 41 41 41 41 42 41 41 40 39 37 35 36 36 35 35 34 34 33 33 32 31 30 29 27 26 24 22
4 6 9 13 15 12 10 12 13 11 10 11 10 9 9 8 12 13 10 7 6 5 8 11 14 16 16 17 16 12 9 12 15 13 14 15 14 13 14 17 17 15 13 9 9 16 23 28 31 32 33 35 35 36 38 40 41 41 42 43 43 42 43 44 44 44 43 43 42 40 40 39 38 38 38 37 36 35 33 32 31 29 28 27 25 24
4 7 13 15 13 9 8 8 9 10 11 10 8 8 8 6 10 11 8 6 3 5 7 9 11 13 14 16 15 12 10 13 16 14 15 16 14 13 15 17 18 15 12 9 8 10 17 24 28 30 32 35 37 38 39 41 41 41 42 44 43 43 44 44 45 45 44 43 41 39 39 39 37 37 38 37 36 35 33 33 31 30 29 28 27 25
6 8 12 13 9 10 11 8 8 9 7 8 8 7 8 7 7 9 6 3 3 4 5 6 9 9 9 12 13 14 14 14 15 15 15 15 14 16 18 17 17 16 13 10 9 8 12 17 23 27 30 33 35 36 37 39 41 43 44 45 44 44 45 45 45 45 43 40 38 36 34 35 34 33 34 33 32 34 33 32 32 31 31 29 28 26
12 7 8 12 11 12 13 10 8 7 8 11 10 8 10 10 11 12 8 4 3 4 4 5 9 8 8 13 15 13 12 13 14 16 16 16 16 16 17 18 19 17 12 10 10 9 9 13 19 26 29 31 33 34 38 41 43 44 44 44 44 43 44 45 45 44 41 38 36 32 27 28 29 27 29 31 31 33 34 34 35 34 33 31 29 27
12 6 7 9 10 12 12 10 8 7 9 11 8 11 14 14 13 13 9 6 5 6 4 2 7 9 8 13 16 9 8 10 10 13 16 16 16 15 15 17 18 15 10 10 10 11 11 12 16 22 26 29 32 35 39 42 43 43 42 43 42 43 43 44 44 43 42 40 38 35 31 31 30 27 31 37 38 38 39 39 38 36 34 32 31 29
7 8 9 10 10 11 10 7 8 11 9 10 6 11 14 12 11 11 7 4 3 6 3 3 2 8 5 7 10 7 7 10 9 11 14 13 13 13 13 14 14 10 7 8 9 10 12 12 13 17 25 30 33 35 38 40 41 40 40 42 43 43 43 43 43 44 43 41 41 41 39 38 36 34 36 40 40 41 41 39 38 37 35 34 32 30
5 6 8 13 11 9 8 8 9 11 8 8 4 8 10 9 9 8 6 5 4 4 3 2 3 7 11 6 9 11 11 12 12 11 12 11 12 15 15 13 12 9 8 9 9 10 12 12 14 18 26 32 34 35 36 37 39 39 39 42 43 43 43 43 43 45 45 44 43 43 41 39 40 39 37 36 37 38 39 38 38 37 36 34 33 31
3 4 7 11 8 7 8 8 8 11 8 6 2 5 5 5 5 3 3 5 2 3 4 4 5 4 14 8 8 11 11 11 13 14 14 13 14 16 15 14 12 9 9 10 11 12 12 13 18 23 27 31 32 33 36 37 39 39 39 40 42 42 42 43 43 45 46 46 44 43 41 39 39 37 34 34 35 36 37 37 37 37 36 35 33 31
1 4 6 7 6 8 6 2 5 9 7 3 4 3 4 3 2 4 1 1 2 4 6 7 7 3 14 11 5 5 7 10 11 12 14 13 14 16 14 12 12 8 7 9 10 12 13 15 20 23 25 28 30 32 35 37 37 38 38 39 41 42 42 43 44 45 46 45 44 43 43 41 39 35 33 32 33 35 36 36 37 37 37 36 34 33
2 1 2 4 4 6 4 3 1 3 3 1 5 5 6 5 5 4 1 4 2 8 6 10 12 9 10 10 4 5 6 11 10 8 10 10 12 15 13 11 12 9 7 8 8 9 9 12 16 20 22 26 28 30 32 34 35 37 38 39 41 42 42 42 44 45 46 46 45 45 45 43 40 37 35 34 34 35 36 36 37 37 37 37 35 34
4 1 3 3 3 5 6 3 2 3 2 3 4 4 4 4 4 5 4 4 2 9 6 13 14 12 10 6 3 2 3 9 10 9 10 11 13 14 12 12 12 10 7 6 7 7 7 8 12 16 19 23 26 28 31 33 35 36 37 39 39 40 42 43 44 46 46 46 47 46 45 44 42 39 39 38 38 38 38 38 37 36 36 36 35 34
6 7 6 2 1 6 6 2 3 5 2 4 4 4 1 4 3 3 3 0 5 8 6 10 10 9 12 7 3 7 5 6 9 9 11 13 13 13 12 13 12 7 7 7 8 8 8 9 10 12 16 21 25 29 32 33 34 35 37 38 39 41 43 43 44 46 47 47 48 48 46 45 43 41 41 41 39 40 40 39 38 38 38 37 37 37
4 6 5 4 3 5 9 6 3 3 4 6 5 6 5 3 1 3 4 3 5 7 7 6 6 5 8 4 8 13 13 12 11 11 13 13 13 14 12 13 10 6 7 7 8 9 9 10 10 11 16 21 25 29 31 32 35 35 36 38 40 42 42 43 44 45 46 48 49 48 46 44 43 42 42 41 40 40 40 40 41 41 42 41 42 41
4 9 5 9 3 7 13 13 11 4 4 6 6 5 4 4 4 4 5 6 6 7 6 3 5 4 3 3 9 12 13 12 10 11 12 12 13 11 10 11 7 5 7 7 8 9 10 11 11 11 16 21 24 27 30 32 34 35 36 39 42 42 42 44 45 45 47 50 48 46 45 43 43 43 42 41 40 41 41 41 42 42 43 43 43 42
5 10 7 7 2 9 12 10 8 6 1 3 5 5 3 4 6 5 5 5 2 4 6 3 4 5 4 6 7 7 8 7 8 11 10 11 12 9 9 11 6 6 7 7 8 9 10 10 9 11 16 20 23 25 29 32 34 37 39 41 43 43 43 44 45 46 48 48 45 45 45 43 42 41 40 40 40 41 42 42 42 42 42 42 42 40
5 7 3 2 2 4 5 3 3 4 2 2 4 4 5 4 6 4 6 3 1 5 8 3 5 6 5 7 8 7 10 8 8 10 10 12 13 10 11 10 7 7 8 8 9 10 10 9 9 12 17 20 23 27 31 35 39 42 43 42 43 42 40 41 45 47 47 45 44 45 45 43 42 42 42 42 41 41 41 41 42 42 41 41 40 39
7 6 3 4 2 3 2 2 1 1 3 5 3 6 3 3 2 3 1 3 2 6 7 5 8 8 6 8 4 1 5 8 9 10 11 14 14 12 12 10 8 8 8 8 8 8 8 8 8 12 18 23 27 31 34 38 40 41 40 39 40 40 41 44 46 46 44 43 44 44 45 44 44 43 43 41 40 40 40 40 41 41 41 41 40 39
4 6 5 2 1 4 2 3 2 4 3 6 3 2 3 1 2 2 3 3 5 8 8 11 14 10 7 8 6 4 7 10 11 12 13 14 13 12 12 10 7 7 6 6 8 7 7 9 9 12 18 24 27 29 32 34 34 34 36 37 38 39 42 43 42 42 42 43 44 44 44 44 43 42 41 40 39 39 40 41 41 41 41 41 39 38
3 5 5 1 1 3 3 1 3 2 1 2 2 3 1 3 4 3 3 3 4 8 9 12 14 11 7 6 6 9 11 11 12 12 12 12 12 12 11 9 6 7 7 8 8 8 9 10 11 15 21 24 28 30 31 31 32 35 37 36 36 37 38 38 38 40 41 43 43 42 41 42 43 42 41 40 40 40 41 41 41 41 41 40 39 39
1 4 6 1 2 2 2 3 7 7 4 1 1 3 3 2 1 2 2 2 4 8 8 8 11 11 7 3 5 9 8 9 11 10 10 11 11 12 11 10 9 9 9 9 8 9 10 10 11 16 22 24 25 26 26 28 32 35 35 35 37 38 37 38 40 41 42 43 42 41 41 42 42 41 40 40 40 41 41 41 41 42 41 40 40 39
1 3 5 1 1 4 7 6 8 11 10 7 6 6 6 5 3 5 6 5 4 5 7 8 9 11 8 1 3 7 6 7 9 9 10 10 10 12 13 13 12 10 9 10 10 9 10 10 10 13 18 20 20 23 26 29 31 31 33 37 39 38 38 40 41 42 43 42 40 41 41 39 38 38 38 39 39 40 41 41 42 42 41 40 40 40
3 3 4 5 4 7 8 5 5 9 7 4 4 6 6 6 6 8 10 7 5 5 6 8 9 12 10 2 2 6 6 7 8 9 9 8 9 12 13 12 10 8 8 8 9 9 9 10 9 10 13 16 19 24 27 29 30 33 36 38 36 36 39 42 42 41 40 38 38 39 37 36 36 37 38 39 40 40 41 41 42 42 42 42 41 41
3 3 5 7 4 4 7 6 4 3 2 1 4 6 8 9 10 11 9 5 7 7 7 9 10 10 11 6 4 6 6 7 8 9 10 10 10 12 12 10 8 8 8 7 7 8 8 7 6 7 9 12 16 22 25 27 30 33 35 35 35 38 42 42 40 38 36 37 37 36 35 35 36 37 39 40 41 41 41 41 42 42 42 42 42 41
3 3 4 6 5 4 6 8 8 5 2 3 6 8 11 13 12 8 4 3 7 11 13 11 10 9 11 9 6 7 6 6 7 7 7 7 8 8 8 7 7 7 7 7 7 7 7 7 7 8 9 10 15 20 23 26 29 31 33 35 37 39 41 39 37 37 37 37 35 35 36 37 37 39 41 42 42 42 41 41 42 42 42 42 42 41
4 5 4 5 8 8 8 9 8 5 3 3 5 10 12 14 13 9 5 6 8 13 14 12 11 11 11 12 14 15 13 10 11 11 9 7 6 6 6 6 7 7 7 8 8 8 7 7 8 9 9 9 13 18 21 24 28 30 32 34 37 38 38 36 36 36 36 36 36 36 37 38 40 42 43 43 42 40 40 41 41 42 42 42 42 41
2 5 8 11 13 12 13 13 8 2 3 4 5 9 10 10 12 10 6 8 10 10 11 12 15 14 11 13 20 23 21 19 17 16 13 11 10 10 8 8 9 9 9 9 7 6 7 7 9 10 10 9 13 18 22 25 27 29 30 32 36 36 35 34 35 35 35 36 37 37 38 40 42 42 42 42 40 39 40 41 41 42 43 42 42 41
2 7 14 19 21 20 20 22 17 10 10 11 9 10 10 8 9 9 10 13 11 8 10 14 16 15 13 15 22 26 26 24 20 16 15 13 12 12 10 9 11 13 9 5 6 7 8 10 11 11 10 9 13 18 22 24 26 28 29 31 33 33 33 33 34 35 36 36 36 37 39 41 41 41 40 39 39 39 40 40 41 41 42 41 41 40
4 9 15 19 22 24 24 25 23 18 16 15 14 15 16 14 11 12 16 18 15 12 14 15 16 17 16 17 22 25 26 25 21 17 15 13 13 15 13 10 12 14 9 4 7 10 11 12 13 11 11 10 12 15 19 22 24 25 27 29 30 31 33 33 34 35 35 35 37 39 40 39 38 38 38 38 38 38 38 39 40 40 40 40 39 39
5 9 14 18 21 21 22 22 21 20 18 16 17 19 19 19 18 19 21 21 20 19 19 20 23 23 19 19 23 24 24 23 19 15 16 18 20 21 17 14 16 17 11 7 10 13 13 14 13 12 12 11 11 13 16 20 23 25 27 29 29 31 33 33 34 35 35 36 38 39 37 37 36 36 36 37 38 38 38 38 39 39 39 39 38 37
6 10 12 13 13 14 17 19 19 19 19 20 21 20 20 21 23 24 22 19 18 20 23 25 26 23 19 22 24 23 21 20 19 21 22 23 24 21 17 17 18 16 14 12 14 15 13 12 12 12 12 13 14 15 17 21 24 25 26 28 29 31 33 34 35 35 36 37 37 35 35 35 35 36 37 38 38 38 39 39 39 39 38 38 37 36
6 8 8 7 8 10 14 18 21 22 22 21 21 21 22 23 23 22 20 18 19 22 25 25 21 17 18 21 21 19 19 19 21 25 26 23 23 20 17 16 13 12 15 15 13 13 13 13 13 14 14 14 14 15 20 23 22 22 25 29 31 31 32 34 34 34 35 35 33 34 35 36 36 37 38 39 39 39 39 39 38 38 38 38 37 37
5 6 5 6 8 9 13 18 20 18 15 14 16 22 26 26 24 23 21 22 24 22 20 18 17 17 17 15 15 17 19 21 22 24 23 23 22 18 14 13 11 13 16 14 11 12 13 13 13 14 14 14 15 19 27 28 24 24 29 31 30 30 32 34 34 34 33 32 33 35 36 37 37 38 38 38 39 39 39 39 39 39 39 39 38 37
5 7 7 6 6 8 13 15 13 11 10 10 13 22 27 27 27 27 25 27 29 25 20 18 17 17 15 13 15 19 21 23 24 23 20 17 15 14 14 14 13 13 13 11 11 12 12 12 12 12 14 17 21 27 31 30 28 29 30 28 27 29 32 33 33 32 31 32 34 36 36 37 37 37 37 37 38 39 39 40 39 38 38 38 37 36
7 8 8 6 6 7 9 10 11 10 10 9 12 19 25 28 31 31 30 31 30 27 25 24 22 20 19 19 20 21 23 24 23 21 18 15 13 14 17 18 17 14 12 11 11 11 11 11 12 11 13 19 26 27 26 26 27 27 24 23 26 30 32 32 32 31 31 32 34 35 35 36 36 35 35 36 37 38 38 38 37 36 36 36 35 35
12 10 7 6 7 7 6 9 12 8 3 1 5 11 17 21 23 25 26 27 28 26 24 24 24 23 23 24 23 21 21 21 18 15 13 12 12 12 13 15 16 15 11 10 11 12 12 11 11 13 17 22 23 21 22 25 27 24 21 23 28 30 31 31 30 30 31 32 33 34 35 36 35 34 35 36 36 36 37 37 36 36 36 36 35 35
16 13 8 6 7 7 8 11 12 11 7 3 4 8 13 15 17 18 19 20 21 21 22 22 23 23 20 18 18 18 17 14 12 9 6 11 14 14 13 12 14 15 13 12 12 12 13 14 13 14 18 20 19 20 24 26 24 21 21 22 25 27 28 29 28 30 32 33 33 35 36 37 37 36 36 37 37 38 37 37 37 37 37 37 35 35
16 14 12 9 7 8 11 10 9 12 12 9 10 13 16 17 19 17 15 12 6 8 10 10 10 11 11 11 13 12 8 7 8 4 7 14 15 14 14 13 13 14 13 14 14 12 14 16 17 16 16 16 17 20 20 19 19 20 19 20 23 25 25 26 27 30 32 33 35 37 38 39 40 39 39 40 40 39 39 38 38 39 39 38 37 37
14 14 13 9 5 7 11 8 8 11 8 5 8 10 11 13 13 10 10 6 7 15 15 14 14 14 14 14 15 11 6 3 5 5 10 14 13 12 12 13 14 14 14 16 16 14 15 18 20 19 14 9 10 14 13 11 15 16 15 17 21 21 21 25 30 33 35 35 35 37 38 39 41 41 41 41 41 40 40 40 39 39 38 37 36 36
9 9 9 8 7 9 11 8 8 8 2 8 12 13 11 7 2 3 6 2 8 13 14 15 15 13 13 13 12 11 8 5 7 9 12 14 12 11 10 11 13 14 13 15 19 19 20 20 18 15 13 12 11 11 8 8 12 12 12 14 16 17 21 26 28 30 31 31 32 35 38 39 41 42 42 42 40 39 40 39 38 37 37 35 33 33
4 5 6 8 11 14 14 11 9 4 3 9 13 15 15 8 2 1 4 4 8 11 11 12 12 11 11 10 8 7 6 6 8 11 13 13 12 13 12 10 12 13 12 13 17 20 21 20 17 13 13 15 14 11 7 8 11 11 12 11 13 18 23 22 20 21 23 26 30 34 37 38 39 40 40 40 39 38 38 38 37 38 37 35 33 31
4 4 3 5 8 10 11 12 11 4 4 10 12 13 13 7 2 3 7 6 5 9 10 9 9 10 10 9 7 7 8 9 11 12 13 13 13 13 13 12 13 15 16 18 19 21 19 17 17 17 17 16 12 9 8 9 11 11 10 11 15 21 19 16 16 20 23 26 29 31 33 34 36 36 36 37 37 37 36 35 36 37 37 36 35 33
5 5 5 5 4 5 7 9 8 4 4 12 12 9 10 6 5 8 7 4 4 9 11 9 8 8 9 10 10 10 10 11 11 11 13 14 14 13 13 12 12 12 14 15 18 21 19 15 15 18 20 18 13 10 8 9 11 10 9 12 18 18 15 14 18 21 24 26 28 29 31 32 32 34 34 35 36 37 35 33 34 35 36 37 36 33
5 4 4 4 3 3 4 5 3 3 4 7 5 3 4 5 7 7 4 4 6 8 8 9 10 10 8 10 12 12 12 12 11 11 12 13 14 14 14 13 12 12 12 12 15 21 20 14 14 20 23 21 16 11 9 10 11 10 10 16 19 17 16 18 20 22 25 27 28 29 30 30 31 32 33 34 35 34 33 34 34 34 34 35 35 32
4 3 4 5 5 4 4 7 9 8 4 1 0 4 9 9 5 4 3 6 7 7 6 7 10 11 10 9 10 11 11 12 12 12 11 11 12 13 14 14 13 12 13 14 17 22 21 16 17 19 21 23 21 15 12 13 13 11 13 18 19 17 18 19 22 24 26 27 29 30 31 31 31 33 34 35 36 35 34 34 34 33 33 33 33 31
7 9 7 5 6 7 7 9 11 10 9 10 8 6 7 6 4 4 4 6 6 5 5 6 7 9 9 9 9 9 10 12 13 13 12 11 12 12 12 13 14 13 14 15 17 21 21 19 18 16 16 21 24 19 16 17 17 16 17 18 17 18 20 21 23 24 25 26 28 30 31 31 31 32 33 35 36 35 36 37 36 34 32 31 31 29
6 7 7 7 8 10 9 8 9 10 14 16 12 5 3 4 2 1 2 4 4 4 4 5 6 8 8 8 8 10 12 13 13 14 13 12 13 13 13 13 13 13 14 15 19 23 21 16 15 14 12 17 23 22 21 21 22 23 23 20 18 19 21 23 24 24 24 26 27 29 32 33 32 32 33 34 34 34 34 36 37 36 34 33 31 28
5 5 6 8 9 9 10 12 14 14 13 13 12 7 2 1 2 3 2 2 3 3 4 5 6 7 8 8 9 10 13 13 13 13 14 13 12 13 13 13 13 14 15 17 20 22 19 14 14 15 13 16 22 24 23 24 27 28 26 24 23 22 23 24 26 25 26 27 28 29 31 32 34 34 34 34 35 34 34 36 38 38 39 39 38 33
5 6 7 8 9 10 11 11 11 12 11 12 10 5 3 3 3 3 2 3 3 4 5 6 6 7 8 10 10 10 12 13 13 13 13 13 13 13 13 13 14 14 15 17 20 20 18 16 16 17 16 20 26 27 25 27 30 30 27 27 27 26 26 26 26 26 26 27 27 28 28 29 31 32 32 31 31 31 32 36 38 38 37 38 39 37
5 7 8 7 7 9 9 9 8 8 10 12 8 2 3 3 4 4 4 5 5 6 7 7 8 8 8 9 10 10 11 12 13 13 13 12 13 14 15 15 15 14 15 19 21 21 20 20 21 20 21 24 29 28 27 30 32 31 29 28 29 29 29 28 25 24 25 26 26 27 28 28 29 30 30 31 31 30 29 30 32 35 36 34 34 33
7 9 9 8 8 10 12 11 8 5 7 10 5 1 2 2 4 4 4 4 4 5 6 7 9 10 9 9 10 10 12 13 13 14 13 12 14 15 15 16 16 16 17 20 19 17 18 21 22 22 22 26 29 29 29 31 32 31 29 29 30 31 31 29 25 21 22 25 27 29 30 29 29 30 29 30 33 35 32 26 24 28 31 30 27 26
Wind_Direction
157 171 174 199 225 224 210 204 219 233 235 244 253 255 251 253 263 258 264 247 183 192 219 217 235 240 246 253 249 254 262 257 249 242 245 246 247 249 247 250 248 244 250 253 232 215 212 210 206 204 202 199 197 196 196 194 194 194 192 192 194 195 195 193 192 192 192 192 192 194 196 198 200 202 203 206 209 211 213 213 212 210 208 208 207 206
163 189 208 215 226 229 216 211 224 235 241 249 250 258 261 251 263 260 257 257 188 197 241 229 243 248 247 254 253 249 250 254 250 241 244 244 244 249 251 253 253 249 254 258 229 210 206 204 201 197 195 192 191 191 193 193 192 193 193 194 196 194 194 194 193 193 194 196 196 196 198 200 200 201 203 206 208 210 212 213 213 213 211 209 208 208
218 220 224 221 229 241 237 218 222 232 232 243 247 256 262 252 271 267 246 256 197 192 248 243 246 254 251 255 258 250 237 243 249 242 244 247 245 250 251 253 254 254 255 248 230 209 200 197 193 191 191 191 191 191 191 192 191 192 194 196 196 195 194 195 196 196 197 199 200 201 201 201 201 202 205 207 208 209 210 211 213 214 213 212 211 210
233 230 224 222 226 238 246 236 228 246 243 239 242 249 258 253 268 268 246 253 223 210 250 258 259 257 258 267 261 249 241 241 249 249 249 251 249 249 251 255 258 254 251 240 227 210 197 192 187 188 189 190 190 189 189 190 190 192 195 197 196 196 196 196 198 199 199 199 200 202 205 204 203 204 205 207 208 208 208 210 212 214 215 215 214 212
243 229 201 209 217 226 241 241 225 247 258 243 231 229 249 249 245 254 267 298 290 279 280 282 288 270 231 250 256 249 246 245 248 252 254 255 252 252 254 258 259 254 242 229 219 203 192 188 189 190 189 187 187 188 190 190 192 194 197 197 196 196 197 198 199 199 199 198 197 198 200 201 202 204 202 203 205 205 206 210 212 214 214 214 215 214
252 228 183 201 217 223 234 241 213 209 252 258 224 212 235 245 245 253 278 317 316 296 276 208 283 277 203 220 247 252 250 249 243 243 248 252 253 254 255 254 255 254 236 220 212 198 194 191 188 188 187 186 189 192 193 193 195 196 197 197 197 197 198 199 199 198 198 198 196 195 193 193 195 197 200 203 203 202 205 210 211 212 213 214 214 214
245 215 191 203 216 218 225 243 214 196 236 268 228 207 224 236 248 257 267 286 262 263 273 134 226 277 245 211 237 240 240 249 245 238 242 246 251 252 249 250 253 249 227 220 216 198 191 188 183 188 190 190 192 195 194 195 196 197 197 197 197 198 199 200 200 199 199 199 198 199 199 198 198 199 204 207 206 205 207 209 210 211 212 213 214 213
216 202 196 212 218 215 222 243 216 184 214 265 232 195 211 226 243 247 232 227 233 266 292 127 136 282 280 233 207 213 221 242 249 246 246 242 245 251 249 252 253 235 209 209 209 197 192 190 188 191 194 194 195 194 193 194 195 196 198 198 198 199 200 200 201 200 201 201 201 202 203 204 205 207 209 208 207 208 208 207 209 210 211 212 213 213
181 184 204 207 208 214 223 231 193 168 206 251 184 171 178 197 220 185 191 226 281 335 282 196 134 278 279 247 188 208 214 229 244 242 243 239 238 248 249 252 256 232 208 206 199 196 194 193 196 195 194 195 196 194 193 195 196 197 198 198 199 200 201 201 202 202 203 204 204 203 204 207 210 211 212 209 206 207 207 206 208 209 209 211 212 214
167 195 196 168 181 216 218 213 172 174 218 232 115 97 70 70 56 79 145 167 43 307 251 193 155 208 277 270 178 177 202 215 233 235 238 234 232 245 248 252 259 242 217 215 202 197 197 197 198 195 192 194 195 195 195 196 196 197 198 198 199 201 202 202 203 203 205 206 206 205 206 208 210 209 209 208 205 205 205 205 205 206 207 208 210 211
239 170 178 160 187 199 146 100 139 169 218 122 94 57 29 12 22 47 16 72 50 277 230 182 180 186 269 286 154 159 198 199 209 224 241 242 236 245 247 249 255 245 225 216 205 201 198 195 193 189 190 193 195 196 196 196 196 197 198 199 201 203 203 203 204 205 206 206 207 209 209 209 209 206 204 203 202 202 202 202 203 204 205 207 208 209
252 249 215 213 181 135 110 101 359 12 58 93 96 74 22 330 8 25 355 56 219 265 214 182 186 187 234 274 136 220 232 190 201 208 223 236 237 242 246 248 250 239 216 195 193 194 180 176 183 187 191 191 191 194 195 197 197 197 199 200 201 203 204 205 205 205 207 207 209 211 211 211 210 207 204 204 203 202 201 202 201 201 202 205 206 207
260 231 204 198 195 156 135 120 347 349 37 106 108 105 61 297 343 355 310 215 222 255 228 194 185 203 240 252 235 271 276 207 207 207 212 223 231 237 241 247 249 230 197 184 185 187 179 183 186 187 191 189 191 195 196 197 197 198 201 201 202 205 206 206 206 206 207 208 211 213 212 212 211 209 208 207 206 205 204 203 200 199 200 201 203 205
286 274 185 155 281 184 156 177 236 271 185 165 150 148 176 213 252 263 257 261 262 264 251 203 176 238 277 271 221 233 241 224 205 208 217 217 225 230 228 243 251 213 189 190 186 186 189 193 192 190 191 190 194 197 196 197 198 199 202 202 206 208 207 206 207 207 208 210 213 214 214 213 211 211 211 210 209 208 206 204 203 202 202 202 203 206
249 291 193 163 229 184 176 205 210 169 156 179 153 143 175 179 183 224 242 255 276 286 274 191 162 224 277 265 218 217 237 236 209 212 219 218 230 231 228 248 252 197 195 196 188 193 197 196 194 193 193 194 196 196 195 198 199 200 203 205 207 209 208 207 208 208 209 212 213 214 215 215 213 212 212 212 211 210 208 207 205 205 204 204 206 208
219 271 223 168 170 165 179 219 197 125 82 213 125 117 207 200 194 232 267 248 246 309 286 210 201 235 235 255 247 235 260 256 220 223 221 226 239 235 238 247 232 192 198 194 193 201 203 198 194 193 195 197 195 194 197 200 199 202 205 207 209 211 209 207 208 210 212 213 212 213 216 216 215 213 212 213 213 211 210 209 207 206 206 207 208 209
232 276 247 144 10 158 178 238 173 149 204 187 120 182 212 165 166 221 286 302 83 275 275 224 233 279 305 279 251 232 250 245 229 230 221 229 235 229 236 237 213 203 202 195 200 203 201 198 196 198 197 195 194 195 199 202 203 205 206 207 210 211 210 209 210 212 213 213 212 213 215 216 215 214 213 213 212 211 210 209 209 208 207 208 209 210
237 271 260 177 237 261 187 107 13 334 133 130 172 220 203 76 109 156 235 324 315 260 269 263 260 280 297 283 292 342 263 250 243 237 224 229 231 228 235 229 207 206 202 204 213 210 207 203 198 202 201 201 200 200 202 204 206 208 209 209 210 210 210 211 212 213 213 213 213 214 214 215 216 215 214 213 212 211 209 208 208 208 207 208 209 210
239 256 268 181 204 303 18 102 317 335 97 132 204 228 109 146 238 157 167 232 251 252 269 277 277 277 255 258 289 283 243 232 231 229 226 230 230 232 238 233 223 215 206 211 217 214 211 206 204 205 206 208 208 206 207 208 208 210 213 214 213 213 213 213 213 213 214 215 215 215 214 215 215 216 215 213 212 210 208 208 207 207 208 208 209 209
227 237 257 19 11 312 5 115 201 253 2 69 359 343 35 178 186 185 178 169 227 249 265 277 283 280 246 237 259 246 230 222 222 225 229 230 231 237 236 230 226 219 217 213 210 211 210 209 209 205 207 210 209 209 210 208 208 211 214 215 215 217 216 216 215 215 215 216 217 216 214 215 215 215 214 212 211 210 209 208 208 207 208 208 207 207
257 249 250 336 356 266 233 199 178 184 204 197 233 263 272 239 179 250 242 162 219 244 252 260 272 275 260 221 239 243 232 223 216 215 228 227 229 240 239 230 219 211 219 219 210 212 212 215 218 210 211 212 211 211 212 211 211 212 213 213 216 217 216 216 216 216 216 217 217 216 214 214 213 213 212 211 210 210 209 208 208 208 207 206 206 205
167 237 246 252 268 241 244 227 192 194 192 177 195 208 210 218 233 268 256 222 217 238 243 247 257 267 270 226 226 241 229 225 217 210 226 228 226 237 238 233 225 212 212 211 207 210 210 214 219 215 212 209 208 212 214 214 213 212 213 215 216 216 216 217 217 216 217 216 216 216 215 214 212 210 211 210 210 209 209 208 207 207 206 205 204 204
168 177 243 248 228 240 257 249 211 219 206 172 203 205 202 205 206 237 245 237 238 236 236 249 251 257 266 278 251 245 221 220 219 207 221 234 232 237 241 246 248 235 223 216 211 211 211 213 215 212 210 207 209 215 216 215 213 212 215 216 215 216 217 218 219 218 217 215 215 215 214 212 210 209 209 209 209 209 208 207 206 205 205 204 203 203
170 164 230 252 266 293 297 298 276 232 154 205 251 215 210 219 214 225 236 238 251 243 234 249 251 253 263 262 274 277 245 227 226 211 218 235 234 232 235 242 245 237 229 225 226 227 221 216 210 205 209 211 215 219 219 217 215 215 216 215 214 217 220 220 218 217 216 215 214 212 210 210 209 208 208 209 209 209 207 206 204 204 204 204 203 204
232 205 209 236 259 289 304 297 283 265 182 217 244 224 223 229 225 232 243 224 243 243 238 249 254 249 256 260 280 305 293 267 263 253 245 250 252 250 250 247 243 244 242 231 232 239 229 212 208 209 213 215 216 219 219 220 220 218 216 216 215 218 221 220 217 215 213 212 211 208 207 207 207 207 208 209 209 208 206 204 203 203 203 203 203 204
241 219 200 223 236 234 236 240 244 244 218 213 239 234 227 221 214 219 234 229 235 236 232 242 252 249 262 283 288 287 284 281 279 281 287 287 281 282 284 280 276 274 267 250 238 237 231 224 223 223 221 221 219 219 221 222 223 221 219 218 218 219 219 217 215 212 210 208 207 206 205 205 205 207 208 208 208 206 204 203 202 202 202 203 204 204
214 212 215 224 229 231 234 236 234 212 199 212 235 238 230 221 217 217 225 231 236 241 236 238 248 254 265 280 281 279 277 274 269 268 273 275 274 275 269 270 274 266 256 255 255 257 259 255 244 235 229 226 224 224 224 225 224 222 221 221 220 220 218 215 212 209 207 205 204 204 204 205 206 207 207 207 206 204 203 202 202 202 202 204 204 204
184 217 220 223 229 232 236 242 247 250 246 241 245 249 247 238 222 216 227 234 235 246 247 240 245 254 254 254 263 269 269 269 267 265 265 263 264 267 257 246 254 256 254 264 274 267 260 256 250 243 237 231 230 232 232 232 230 225 223 223 221 218 215 212 208 205 204 203 202 204 206 206 206 206 206 205 204 203 202 201 201 201 202 203 203 204
212 234 224 224 230 230 232 240 245 248 250 248 251 256 256 250 235 226 234 238 234 239 249 251 251 252 250 247 253 260 265 269 270 270 269 268 263 261 255 239 243 252 250 245 258 254 244 245 246 243 241 237 235 238 238 237 234 229 227 226 222 217 213 209 205 203 201 201 203 206 206 205 204 204 203 202 201 201 200 199 200 200 200 202 202 203
212 235 223 227 234 231 231 237 240 243 249 250 249 251 253 254 249 241 241 243 243 246 251 255 255 253 252 251 252 255 262 270 276 277 274 271 265 261 258 250 251 258 256 230 236 241 235 236 240 240 243 243 238 237 238 237 233 228 226 224 220 216 211 206 202 201 200 201 205 206 204 202 201 199 199 199 199 199 199 198 198 198 199 200 201 202
211 228 220 225 240 237 233 236 237 239 242 243 245 246 249 253 253 250 250 250 251 254 252 250 252 254 252 251 253 256 263 272 280 279 273 268 266 265 262 259 260 267 267 246 234 237 235 233 238 239 239 239 237 234 233 234 232 228 226 224 219 214 209 204 201 200 201 204 205 203 200 198 197 196 197 197 198 198 197 197 196 196 197 198 198 200
210 234 231 230 244 237 229 233 236 236 237 239 242 245 246 247 248 249 249 246 246 250 252 250 250 251 248 250 254 259 264 268 270 271 270 270 269 268 265 264 263 258 254 245 233 234 236 234 236 237 236 237 236 231 232 234 230 224 223 222 219 213 207 202 201 201 203 204 202 199 197 196 194 194 196 196 196 196 195 195 194 194 195 195 196 197
205 231 231 227 244 241 229 232 236 236 238 237 232 234 239 242 246 247 247 246 243 244 249 249 247 248 251 253 258 260 260 259 258 259 262 266 269 271 270 266 252 240 243 241 230 227 231 234 235 234 235 237 233 230 232 231 225 224 226 224 217 209 202 200 201 202 202 201 199 197 196 194 193 193 194 194 194 194 192 192 192 192 193 194 195 195
211 228 231 226 244 245 232 235 239 233 232 229 214 216 226 234 241 244 243 242 240 240 243 247 250 255 258 253 249 250 251 252 251 252 256 264 274 280 278 269 254 246 247 244 231 226 226 233 238 238 239 240 237 234 233 231 227 230 232 224 212 203 199 198 199 200 199 198 198 198 195 193 192 192 193 192 192 191 191 191 191 191 192 192 191 191
225 228 234 234 246 249 236 236 241 234 229 230 215 210 218 228 235 240 243 243 244 245 247 250 252 251 251 249 246 245 247 251 255 260 265 273 278 280 279 278 277 273 264 253 246 243 240 238 239 242 245 244 239 234 231 231 230 230 225 213 202 198 197 196 197 197 197 197 197 196 193 191 191 190 190 190 189 189 190 189 189 189 189 190 189 190
232 233 232 228 236 247 236 228 238 252 259 218 211 208 215 227 235 242 249 250 249 248 246 249 249 245 243 247 248 249 253 257 263 269 280 298 311 316 312 306 306 306 297 284 274 266 263 256 241 237 244 247 243 234 231 234 231 221 210 202 197 195 194 194 194 195 196 196 195 193 191 190 189 188 188 188 187 188 188 188 187 187 187 188 188 189
226 230 233 234 225 232 244 239 247 270 278 243 216 207 209 219 224 231 244 249 249 251 250 249 253 256 258 260 264 266 267 271 273 275 321 356 357 354 350 341 336 334 330 324 311 295 291 287 274 264 262 258 252 241 236 235 226 208 196 191 190 191 190 191 193 194 195 195 194 192 191 189 188 187 186 186 186 187 187 187 187 187 187 187 187 188
225 223 225 232 217 218 242 247 249 260 257 241 229 218 213 219 219 222 239 252 289 332 314 292 292 306 323 335 326 308 289 277 274 287 11 9 358 350 348 347 346 345 344 342 336 327 320 317 314 307 292 272 265 265 257 239 213 193 185 185 186 187 187 191 196 196 195 196 194 192 191 190 189 187 186 186 187 187 186 186 186 188 189 188 188 189
240 235 232 239 230 224 238 242 242 251 261 291 281 257 240 235 232 238 251 260 13 22 21 26 28 22 16 7 356 358 19 356 305 328 355 350 343 342 340 337 339 341 341 343 344 338 332 336 338 335 330 316 300 302 293 244 202 185 183 188 187 185 189 197 200 198 198 198 195 192 191 191 190 189 188 188 189 188 186 186 187 188 189 190 189 190
251 244 241 246 246 242 244 250 250 248 306 2 340 324 312 292 256 273 265 274 23 19 23 28 24 22 18 7 3 15 24 358 323 320 325 325 323 324 324 323 329 333 333 337 340 338 337 345 352 352 349 341 330 325 301 228 197 190 195 193 188 193 204 208 205 203 200 196 192 191 192 191 191 191 190 189 188 187 186 186 185 185 186 188 188 185
284 262 245 245 250 248 244 251 258 246 36 4 347 340 333 329 92 109 289 327 14 9 12 16 10 8 8 4 2 0 341 311 298 297 303 309 311 313 316 315 317 320 319 322 329 333 336 339 341 342 337 329 327 322 284 215 194 200 201 189 195 211 216 215 210 206 200 195 192 192 192 192 192 192 191 189 186 184 185 185 185 184 183 183 183 181
320 297 270 267 272 262 249 254 258 237 57 16 356 358 2 353 284 307 317 315 345 357 356 357 356 352 348 345 339 320 301 295 293 293 299 306 309 311 315 318 319 321 323 325 329 333 333 328 327 329 327 323 320 305 265 214 200 206 196 193 217 224 221 217 210 203 198 196 194 193 192 192 192 190 189 187 184 182 183 184 184 183 181 178 179 179
305 300 294 287 290 286 272 265 252 233 28 16 3 8 29 22 292 299 316 305 329 351 342 333 340 344 334 327 320 307 301 300 298 300 304 307 310 311 312 317 320 319 321 324 326 329 329 324 321 318 316 316 310 290 259 220 209 210 199 213 231 230 220 216 209 199 195 194 192 193 192 191 190 188 186 185 184 182 180 180 181 180 179 177 175 175
270 273 282 293 316 323 295 288 293 307 354 22 30 3 334 303 270 269 298 315 325 337 333 324 327 328 323 319 313 308 309 310 307 311 313 312 316 318 317 322 324 321 321 321 320 323 324 320 315 312 311 312 308 290 265 239 225 215 219 233 236 224 212 210 202 194 192 191 190 190 190 188 188 187 185 184 183 181 179 178 178 177 178 177 174 172
291 294 254 257 281 282 264 282 302 314 316 302 106 301 298 292 259 225 275 322 323 324 328 320 319 323 328 326 316 309 311 315 316 320 322 319 320 321 323 327 328 326 325 322 320 323 322 315 311 310 308 308 305 290 269 255 236 222 236 246 237 218 209 203 194 190 189 188 188 187 186 185 185 186 185 184 183 181 179 177 176 176 177 177 175 172
310 306 281 263 290 295 274 266 281 301 305 297 299 300 288 276 227 210 271 316 318 315 320 316 318 329 334 333 328 320 316 319 319 319 321 321 319 318 320 320 320 320 320 319 318 319 318 313 310 307 303 305 303 291 274 263 246 235 247 253 237 219 212 201 191 189 187 185 186 185 182 180 181 183 185 184 184 184 183 179 178 177 176 177 176 175
286 294 293 292 300 297 286 282 294 303 301 300 305 305 242 225 221 229 309 325 321 321 328 325 325 328 328 330 330 319 313 316 318 317 319 319 314 313 313 311 310 311 312 312 312 312 312 309 306 303 299 299 298 290 279 269 257 249 251 252 240 224 212 199 190 187 186 185 185 183 181 180 179 180 182 183 184 185 184 183 181 178 176 177 176 174
287 312 306 290 283 280 285 297 301 295 290 296 309 318 314 143 53 35 27 350 329 327 329 328 326 323 319 318 317 311 309 312 314 312 313 312 309 309 308 306 306 306 305 306 307 308 308 306 301 301 298 293 292 288 278 268 264 258 250 243 235 222 207 197 192 188 187 187 185 184 184 183 181 180 180 182 183 184 184 185 184 182 181 180 177 173
291 301 287 279 283 286 288 290 288 287 292 300 307 327 33 52 31 18 353 338 340 338 337 335 328 323 316 312 311 310 306 307 310 310 309 308 306 305 304 303 304 305 304 306 307 307 306 303 299 298 294 290 290 287 276 267 265 260 249 237 227 215 203 196 192 189 188 187 185 185 186 186 184 182 180 180 182 184 186 186 186 186 185 184 181 179
267 269 266 273 282 280 278 280 286 295 298 299 307 27 74 15 358 1 349 347 350 342 337 331 321 316 313 310 313 316 311 308 310 310 306 303 302 304 306 307 307 305 304 306 307 306 302 298 296 294 291 289 288 285 277 269 265 259 249 236 223 213 203 194 188 187 186 185 185 186 185 184 185 183 181 179 178 179 182 186 190 190 187 184 185 187
243 246 251 259 260 261 267 273 282 289 279 283 299 83 121 6 3 358 340 341 339 330 330 327 318 313 310 308 310 312 308 305 306 306 304 301 301 303 306 307 308 308 307 306 305 302 298 295 292 289 287 287 286 282 275 270 266 260 250 236 223 215 205 194 186 185 187 187 189 188 186 184 183 182 181 181 178 174 172 173 182 189 187 184 185 187